BREEZE-M DEB, 35540

Orbit data source: Space-Track

BREEZE-M DEB, 35540 is space debris in HEO originally from a launch on Tue, 28 Feb 2006 UTC launched from the Tyuratam Missile And Space Complex (TTMTR). Debris objects in space refer to the collection of defunct objects orbiting the Earth. Examples of debris include non-operational satellites, rocket bodies, and fragments generated from explosions, collisions, or faulty payload assembly.

Loading next visibility...
Identifier
35540, 2006-006CH
Orbit
HEO
Country
Flag of CISCIS
Related business
Manufacturer
Khrunichev
Mission
Spacecraft
Bus & Motor
Unknown
Mass
Unknown
Launch date (UTC)
2006-02-28 (20 years ago)
Launch vehicle
Unknown
Launch site
Tyuratam Missile And Space Complex (TTMTR)
Object type
Payload
Rocket body
Debris
Shape & HBR
Unknown shape, 1.1 m
Radar Cross Section
Medium (>0.1 m² and <1 m²)

Expand to show TLE details & history
Last TLE update: 2 days ago

TLE from 2 days ago
0 BREEZE-M DEB
1 35540U 06006CH  26161.63344469  .00003954  00000-0  91428-2 0  9991
2 35540  52.2243 322.9591 4953535 134.1554 344.4784  5.40211589 42213
Epoch: 2026-06-10T15:12Z
TLE epoch observation values (Epoch: 2026-06-10T15:12:09.621Z)
Latitude
52.13599°
Longitude
-81.4373°
Altitude
1,425.375 km
Speed
8.559 km/s
True Right ascension
03h 02m 21s
True Declination
51° 59' 01"
Sunlit
Object was in daylight at epoch
Visualization orbit readout
Latitude
Unknown
Longitude
Unknown
Altitude
Unknown
Speed
Unknown
Apparent Right ascension
Unknown
Apparent Declination
Unknown
Sunlit
N/A
Visualization observer readout
Local Sidereal Time
16:50:19
Azimuth
Unknown
Elevation
Unknown
Doppler factor
Unknown
Orbital elements
Apogee altitude
14,138.828 km
Perigee altitude
545.854 km
Semi-major axis
13,720.478 km
Eccentricity
0.49535
Inclination
52.2243°
RAAN
322.9591°
Arg. of periapsis
134.1554°
True anomaly
311.24661°
Mean anomaly
344.4784°
Eccentric anomaly
330.50457°
Mean motion
1.35048 °/min
Orbital period
266.57 mins
BSTAR
0.0091428
Loading maneuver chart data...
Computing Atmospheric mass density...
Loading historical data...
Loading historical data...
Loading historical data...
Loading historical data...
Loading historical data...
Loading historical data...
Loading historical data...

Documentation

Showing up to 5 results
|